Location: Baia Mare
(47.6567°N, 23.5850°E)
Time: 13:38:03
(UTC+03:00)

ISS - Pass Details

Date: 20 July 2019
Orbit: 409 x 418 km, 51.6° (Epoch: 21 July)

Event Time Altitude Azimuth Distance (km) Brightness Sun altitude
Rises 00:51:50 0° 281° (WNW) 2,351 0.3 -21.0°
Reaches altitude 10° 00:54:01 10° 290° (WNW) 1,487 -0.6 -21.0°
Maximum altitude 00:57:11 39° 1° (N) 632 -2.4 -21.1°
Drops below altitude 10° 01:00:20 10° 73° (ENE) 1,482 -0.9 -21.2°
Sets 01:02:30 0° 81° (E) 2,342 0.1 -21.3°
